| time (UTC) | temp F | wind direction | speed MPH | gust MPH | rain 1hr in | rain 24hr in | rain mn in | humidity % | barometer mb |
| 20260505124503 | 61 | 218 | 0.0 | 5.0 | 0.00 | 0.00 | 0.00 | 85 | 1005.9 |
| 20260505123603 | 60 | 201 | 1.0 | 5.0 | 0.00 | 0.00 | 0.00 | 85 | 1005.7 |
| 20260505122703 | 60 | 153 | 1.0 | 8.0 | 0.00 | 0.00 | 0.00 | 86 | 1005.4 |
| 20260505121803 | 60 | 168 | 1.0 | 5.0 | 0.00 | 0.00 | 0.00 | 86 | 1004.6 |
| 20260505120924 | 60 | 150 | 1.0 | 10.0 | 0.00 | 0.00 | 0.00 | 85 | 1004.4 |
| 20260505120008 | 60 | 177 | 1.0 | 5.0 | 0.00 | 0.00 | 0.00 | 84 | 1004.8 |
| 20260505115408 | 60 | 173 | 1.0 | 5.0 | 0.00 | 0.00 | 0.00 | 85 | 1004.5 |
| 20260505114529 | 60 | 193 | 1.0 | 8.0 | 0.00 | 0.00 | 0.00 | 85 | 1004.3 |
| 20260505113608 | 60 | 170 | 1.0 | 8.0 | 0.00 | 0.00 | 0.00 | 84 | 1004.8 |
| 20260505112729 | 60 | 188 | 1.0 | 10.0 | 0.00 | 0.00 | 0.00 | 84 | 1004.6 |
| 20260505111808 | 60 | 189 | 0.0 | 5.0 | 0.00 | 0.00 | 0.00 | 82 | 1005.0 |
| 20260505110908 | 60 | 168 | 0.0 | 8.0 | 0.00 | 0.00 | 0.00 | 81 | 1005.2 |
| 20260505101807 | 62 | 67 | 0.0 | 2.0 | 0.00 | 0.00 | 0.00 | 75 | 1005.1 |
| 20260505100908 | 62 | 263 | 0.0 | 5.0 | 0.00 | 0.00 | 0.00 | 74 | 1005.2 |
| 20260505100008 | 62 | 197 | 0.0 | 2.0 | 0.00 | 0.00 | 0.00 | 75 | 1005.2 |
| 20260505095408 | 62 | 222 | 0.0 | 2.0 | 0.00 | 0.00 | 0.00 | 75 | 1004.8 |
| 20260505094508 | 62 | 233 | 0.0 | 2.0 | 0.00 | 0.00 | 0.00 | 74 | 1004.9 |
| 20260505093607 | 63 | 258 | 0.0 | 2.0 | 0.00 | 0.00 | 0.00 | 72 | 1004.6 |
| 20260505092707 | 63 | 224 | 0.0 | 5.0 | 0.00 | 0.00 | 0.00 | 71 | 1004.8 |
| 20260505091808 | 63 | 219 | 0.0 | 10.0 | 0.00 | 0.00 | 0.00 | 71 | 1004.6 |
| 20260505090908 | 64 | 184 | 1.0 | 10.0 | 0.00 | 0.00 | 0.00 | 70 | 1004.5 |
| 20260505090008 | 64 | 242 | 1.0 | 5.0 | 0.00 | 0.00 | 0.00 | 70 | 1004.6 |
| 20260505085407 | 64 | 238 | 1.0 | 8.0 | 0.00 | 0.00 | 0.00 | 69 | 1004.6 |
| 20260505084507 | 64 | 195 | 1.0 | 5.0 | 0.00 | 0.00 | 0.00 | 69 | 1004.3 |
| 20260505083607 | 64 | 203 | 2.0 | 13.0 | 0.00 | 0.00 | 0.00 | 69 | 1004.3 |
| 20260505082707 | 64 | 227 | 1.0 | 10.0 | 0.00 | 0.00 | 0.00 | 70 | 1003.8 |
| 20260505081807 | 64 | 203 | 1.0 | 5.0 | 0.00 | 0.00 | 0.00 | 70 | 1003.7 |
| 20260505080907 | 64 | 233 | 1.0 | 8.0 | 0.00 | 0.00 | 0.00 | 69 | 1003.9 |
| 20260505080008 | 64 | 175 | 1.0 | 8.0 | 0.00 | 0.00 | 0.00 | 71 | 1003.4 |
| 20260505075407 | 64 | 179 | 1.0 | 8.0 | 0.00 | 0.00 | 0.00 | 70 | 1003.5 |
| 20260505074507 | 64 | 182 | 2.0 | 8.0 | 0.00 | 0.00 | 0.00 | 70 | 1003.3 |
| 20260505073608 | 64 | 146 | 1.0 | 8.0 | 0.00 | 0.00 | 0.00 | 70 | 1003.5 |
| 20260505072707 | 64 | 166 | 1.0 | 8.0 | 0.00 | 0.00 | 0.00 | 72 | 1003.4 |
| 20260505071807 | 63 | 180 | 1.0 | 5.0 | 0.00 | 0.00 | 0.00 | 73 | 1003.4 |
| 20260505070928 | 63 | 179 | 0.0 | 2.0 | 0.00 | 0.00 | 0.00 | 74 | 1003.4 |
| 20260505070028 | 64 | 202 | 0.0 | 5.0 | 0.00 | 0.00 | 0.00 | 73 | 1003.5 |
| 20260505065407 | 63 | 193 | 0.0 | 2.0 | 0.00 | 0.00 | 0.00 | 73 | 1003.5 |
| 20260505064528 | 63 | 186 | 0.0 | 5.0 | 0.00 | 0.00 | 0.00 | 73 | 1003.3 |
| 20260505063607 | 63 | 162 | 1.0 | 8.0 | 0.00 | 0.00 | 0.00 | 73 | 1003.2 |
| 20260505062707 | 63 | 151 | 1.0 | 5.0 | 0.00 | 0.00 | 0.00 | 73 | 1003.0 |
| 20260505061807 | 63 | 170 | 0.0 | 5.0 | 0.00 | 0.00 | 0.00 | 74 | 1003.0 |
| 20260505060907 | 63 | 161 | 0.0 | 5.0 | 0.00 | 0.00 | 0.00 | 75 | 1003.1 |
| 20260505060007 | 64 | 163 | 1.0 | 5.0 | 0.00 | 0.00 | 0.00 | 74 | 1003.2 |
| 20260505055407 | 64 | 169 | 1.0 | 5.0 | 0.00 | 0.00 | 0.00 | 73 | 1003.4 |
| 20260505054507 | 64 | 170 | 1.0 | 5.0 | 0.00 | 0.00 | 0.00 | 72 | 1003.0 |
| 20260505053607 | 64 | 156 | 0.0 | 8.0 | 0.00 | 0.00 | 0.00 | 71 | 1003.3 |
| 20260505052707 | 65 | 168 | 0.0 | 8.0 | 0.00 | 0.00 | 0.00 | 70 | 1003.4 |
| 20260505051807 | 65 | 160 | 0.0 | 5.0 | 0.00 | 0.00 | 0.00 | 70 | 1003.5 |
| 20260505050906 | 65 | 168 | 0.0 | 5.0 | 0.00 | 0.00 | 0.00 | 70 | 1003.6 |
| 20260505040906 | 66 | 176 | 1.0 | 8.0 | 0.00 | 0.00 | 0.00 | 68 | 1003.8 |
| 20260505040006 | 66 | 164 | 1.0 | 8.0 | 0.00 | 0.00 | 0.00 | 68 | 1004.1 |
| 20260505035406 | 66 | 164 | 0.0 | 8.0 | 0.00 | 0.00 | 0.00 | 69 | 1003.9 |
| 20260505034506 | 66 | 136 | 0.0 | 8.0 | 0.00 | 0.00 | 0.00 | 69 | 1003.9 |
| 20260505033606 | 65 | 132 | 0.0 | 8.0 | 0.00 | 0.00 | 0.00 | 69 | 1003.8 |
| 20260505032707 | 65 | 133 | 0.0 | 2.0 | 0.00 | 0.00 | 0.00 | 72 | 1003.9 |
| 20260505031806 | 65 | 143 | 0.0 | 5.0 | 0.00 | 0.00 | 0.00 | 73 | 1003.8 |
| 20260505030906 | 64 | 158 | 0.0 | 2.0 | 0.00 | 0.00 | 0.00 | 73 | 1003.6 |
| 20260505030006 | 64 | 173 | 0.0 | 2.0 | 0.00 | 0.00 | 0.00 | 73 | 1003.6 |
| 20260505025427 | 64 | 0 | 0.0 | 0.0 | 0.00 | 0.00 | 0.00 | 74 | 1003.6 |
| 20260505024506 | 65 | 139 | 0.0 | 2.0 | 0.00 | 0.00 | 0.00 | 72 | 1003.6 |
| 20260505023606 | 66 | 170 | 0.0 | 2.0 | 0.00 | 0.00 | 0.00 | 71 | 1003.9 |
| 20260505022727 | 66 | 146 | 0.0 | 5.0 | 0.00 | 0.00 | 0.00 | 70 | 1003.7 |
| 20260505021827 | 66 | 159 | 0.0 | 2.0 | 0.00 | 0.00 | 0.00 | 70 | 1003.7 |
| 20260505020906 | 66 | 153 | 0.0 | 2.0 | 0.00 | 0.00 | 0.00 | 70 | 1003.4 |
| 20260505020006 | 66 | 136 | 0.0 | 5.0 | 0.00 | 0.00 | 0.00 | 69 | 1003.6 |
| 20260505015406 | 65 | 0 | 0.0 | 0.0 | 0.00 | 0.00 | 0.00 | 71 | 1003.7 |
| 20260505014506 | 66 | 135 | 0.0 | 5.0 | 0.00 | 0.00 | 0.00 | 69 | 1003.5 |
| 20260505013606 | 65 | 114 | 0.0 | 2.0 | 0.00 | 0.00 | 0.00 | 69 | 1003.3 |
| 20260505012706 | 66 | 131 | 0.0 | 5.0 | 0.00 | 0.00 | 0.00 | 68 | 1003.3 |
| 20260505011806 | 66 | 141 | 0.0 | 2.0 | 0.00 | 0.00 | 0.00 | 68 | 1003.2 |
| 20260505010906 | 67 | 78 | 0.0 | 2.0 | 0.00 | 0.00 | 0.00 | 66 | 1003.4 |
| 20260505010006 | 67 | 139 | 0.0 | 2.0 | 0.00 | 0.00 | 0.00 | 65 | 1003.1 |
| 20260505005406 | 67 | 155 | 0.0 | 2.0 | 0.00 | 0.00 | 0.00 | 65 | 1003.2 |
| 20260505004506 | 68 | 126 | 0.0 | 8.0 | 0.00 | 0.00 | 0.00 | 63 | 1003.2 |
| 20260505003606 | 68 | 163 | 0.0 | 2.0 | 0.00 | 0.00 | 0.00 | 63 | 1003.3 |
| 20260505002706 | 68 | 162 | 0.0 | 2.0 | 0.00 | 0.00 | 0.00 | 62 | 1003.2 |
| 20260505001806 | 69 | 187 | 0.0 | 8.0 | 0.00 | 0.00 | 0.00 | 63 | 1003.0 |
| 20260505000906 | 69 | 160 | 0.0 | 5.0 | 0.00 | 0.00 | 0.00 | 63 | 1002.9 |
| 20260505000005 | 69 | 164 | 0.0 | 5.0 | 0.00 | 0.00 | 0.00 | 62 | 1003.0 |
| 20260504235406 | 70 | 156 | 0.0 | 5.0 | 0.00 | 0.00 | 0.00 | 61 | 1003.1 |
| 20260504234506 | 70 | 159 | 1.0 | 8.0 | 0.00 | 0.00 | 0.00 | 61 | 1003.4 |
| 20260504233606 | 70 | 182 | 0.0 | 5.0 | 0.00 | 0.00 | 0.00 | 60 | 1003.0 |
| 20260504232705 | 71 | 168 | 1.0 | 8.0 | 0.00 | 0.00 | 0.00 | 59 | 1002.9 |
| 20260504231805 | 71 | 191 | 1.0 | 8.0 | 0.00 | 0.00 | 0.00 | 59 | 1003.3 |
| 20260504230905 | 71 | 183 | 0.0 | 2.0 | 0.00 | 0.00 | 0.00 | 60 | 1003.3 |
| 20260504230005 | 70 | 178 | 1.0 | 8.0 | 0.00 | 0.00 | 0.00 | 62 | 1003.5 |
| 20260504225405 | 70 | 192 | 1.0 | 10.0 | 0.00 | 0.00 | 0.00 | 62 | 1003.8 |
| 20260504224505 | 70 | 185 | 1.0 | 10.0 | 0.00 | 0.00 | 0.00 | 61 | 1003.7 |
| 20260504223605 | 70 | 168 | 1.0 | 10.0 | 0.00 | 0.00 | 0.00 | 60 | 1003.9 |
| 20260504222705 | 71 | 223 | 1.0 | 8.0 | 0.00 | 0.00 | 0.00 | 61 | 1003.8 |
| 20260504221805 | 70 | 179 | 2.0 | 10.0 | 0.00 | 0.00 | 0.00 | 60 | 1003.9 |
| 20260504220905 | 72 | 191 | 2.0 | 13.0 | 0.00 | 0.00 | 0.00 | 60 | 1004.1 |
| 20260504220026 | 72 | 196 | 2.0 | 10.0 | 0.00 | 0.00 | 0.00 | 58 | 1003.8 |
| 20260504215405 | 72 | 236 | 2.0 | 10.0 | 0.00 | 0.00 | 0.00 | 56 | 1003.9 |
| 20260504214505 | 72 | 220 | 2.0 | 10.0 | 0.00 | 0.00 | 0.00 | 55 | 1003.9 |
| 20260504213605 | 72 | 170 | 2.0 | 13.0 | 0.00 | 0.00 | 0.00 | 54 | 1003.8 |
| 20260504212705 | 74 | 210 | 2.0 | 10.0 | 0.00 | 0.00 | 0.00 | 53 | 1003.6 |
| 20260504211826 | 74 | 185 | 2.0 | 13.0 | 0.00 | 0.00 | 0.00 | 52 | 1003.5 |
| 20260504210926 | 74 | 212 | 2.0 | 10.0 | 0.00 | 0.00 | 0.00 | 54 | 1003.5 |
| 20260504210005 | 74 | 204 | 2.0 | 10.0 | 0.00 | 0.00 | 0.00 | 57 | 1003.9 |
| 20260504205426 | 74 | 193 | 2.0 | 10.0 | 0.00 | 0.00 | 0.00 | 54 | 1003.8 |
| 20260504204505 | 72 | 191 | 3.0 | 15.0 | 0.00 | 0.00 | 0.00 | 58 | 1004.4 |
| 20260504203605 | 72 | 191 | 2.0 | 10.0 | 0.00 | 0.00 | 0.00 | 60 | 1004.5 |
| 20260504202705 | 73 | 233 | 2.0 | 13.0 | 0.00 | 0.00 | 0.00 | 58 | 1004.6 |
| 20260504201805 | 72 | 196 | 3.0 | 15.0 | 0.00 | 0.00 | 0.00 | 60 | 1004.6 |
| 20260504200905 | 73 | 212 | 4.0 | 25.0 | 0.00 | 0.00 | 0.00 | 55 | 1004.9 |
| 20260504200026 | 75 | 198 | 3.0 | 25.0 | 0.00 | 0.00 | 0.00 | 52 | 1005.1 |
| 20260504195405 | 76 | 237 | 3.0 | 15.0 | 0.00 | 0.00 | 0.00 | 53 | 1004.7 |
| 20260504194526 | 77 | 251 | 3.0 | 13.0 | 0.00 | 0.00 | 0.00 | 50 | 1004.7 |
| 20260504193605 | 76 | 185 | 3.0 | 13.0 | 0.00 | 0.00 | 0.00 | 53 | 1004.7 |
| 20260504192704 | 77 | 206 | 2.0 | 15.0 | 0.00 | 0.00 | 0.00 | 52 | 1004.7 |
| 20260504191826 | 76 | 224 | 3.0 | 10.0 | 0.00 | 0.00 | 0.00 | 53 | 1004.5 |
| 20260504190905 | 76 | 188 | 2.0 | 13.0 | 0.00 | 0.00 | 0.00 | 53 | 1004.4 |
| 20260504190005 | 74 | 158 | 1.0 | 8.0 | 0.00 | 0.00 | 0.00 | 57 | 1004.6 |
| 20260504185405 | 76 | 204 | 1.0 | 8.0 | 0.00 | 0.00 | 0.00 | 54 | 1004.5 |
| 20260504184505 | 75 | 222 | 3.0 | 10.0 | 0.00 | 0.00 | 0.00 | 54 | 1004.7 |
| 20260504183604 | 75 | 221 | 2.0 | 10.0 | 0.00 | 0.00 | 0.00 | 55 | 1004.8 |
| 20260504182704 | 73 | 204 | 3.0 | 10.0 | 0.00 | 0.00 | 0.00 | 55 | 1005.0 |
| 20260504181804 | 76 | 198 | 2.0 | 10.0 | 0.00 | 0.00 | 0.00 | 54 | 1004.9 |
| 20260504180904 | 76 | 193 | 2.0 | 10.0 | 0.00 | 0.00 | 0.00 | 54 | 1005.0 |
| 20260504180005 | 76 | 201 | 1.0 | 8.0 | 0.00 | 0.00 | 0.00 | 54 | 1005.3 |
| 20260504175404 | 76 | 170 | 2.0 | 8.0 | 0.00 | 0.00 | 0.00 | 55 | 1005.0 |
| 20260504174504 | 75 | 210 | 2.0 | 8.0 | 0.00 | 0.00 | 0.00 | 55 | 1005.2 |
| 20260504173604 | 75 | 181 | 2.0 | 10.0 | 0.00 | 0.00 | 0.00 | 57 | 1005.2 |
| 20260504172704 | 74 | 178 | 1.0 | 10.0 | 0.00 | 0.00 | 0.00 | 59 | 1005.1 |
| 20260504171805 | 74 | 162 | 2.0 | 10.0 | 0.00 | 0.00 | 0.00 | 59 | 1005.3 |
| 20260504170904 | 73 | 183 | 2.0 | 10.0 | 0.00 | 0.00 | 0.00 | 58 | 1005.7 |
| 20260504150904 | 69 | 155 | 1.0 | 10.0 | 0.00 | 0.00 | 0.00 | 60 | 1007.0 |
| 20260504140904 | 62 | 183 | 2.0 | 8.0 | 0.00 | 0.00 | 0.00 | 65 | 1007.0 |